When you browse on this site, cookies collect data to enhance your experience and personalize the content and advertising you see.
Visit our Privacy Policy to learn more. By continuing to use the site, you agree to this use of cookies and data.
  • In Norway
  • List of Countries
  • For 7 days
  • Water Temperature
  • Satellite Maps
  • Weather Map
  • Weather Widgets
  • user-avatar
    Login

    Hourly Weather Wiktoria

    Today, 21 January, Monday

    Time Temperature Precipitation Wind Pressure Humidity
    00:00 +23°C° 0 mm 5 mps 750 mmHg 64%
    01:00 +22°C° 0 mm 4 mps 750 mmHg 67%
    02:00 +21°C° 0 mm 4 mps 750 mmHg 69%
    03:00 +21°C° 0 mm 4 mps 750 mmHg 71%
    04:00 +20°C° 0 mm 3 mps 750 mmHg 77%
    05:00 +21°C° 0 mm 3 mps 750 mmHg 71%
    06:00 +22°C° 0 mm 3 mps 750 mmHg 66%
    07:00 +24°C° 0 mm 3 mps 750 mmHg 61%
    08:00 +27°C° 0 mm 3 mps 750 mmHg 54%
    09:00 +30°C° 0 mm 3 mps 750 mmHg 48%
    10:00 +34°C° 0 mm 3 mps 750 mmHg 41%
    11:00 +36°C° 0 mm 2 mps 749 mmHg 35%
    12:00 +38°C° 0 mm 2 mps 749 mmHg 29%
    13:00 +40°C° 0 mm 1 mps 748 mmHg 22%
    14:00 +40°C° 0 mm 1 mps 748 mmHg 21%
    15:00 +40°C° 0 mm 1 mps 747 mmHg 19%
    16:00 +41°C° 0 mm 1 mps 746 mmHg 18%
    17:00 +40°C° 0 mm 1 mps 746 mmHg 19%
    18:00 +39°C° 0 mm 1 mps 747 mmHg 21%
    19:00 +36°C° 0 mm 1 mps 747 mmHg 22%
    20:00 +35°C° 0 mm 2 mps 747 mmHg 31%
    21:00 +33°C° 0 mm 4 mps 747 mmHg 40%
    22:00 +29°C° 0 mm 5 mps 748 mmHg 49%
    23:00 +28°C° 0 mm 4 mps 748 mmHg 53%

    Tomorrow, 22 January, Tuesday

    Time Temperature Precipitation Wind Pressure Humidity
    00:00 +27°C° 0 mm 4 mps 747 mmHg 57%
    01:00 +26°C° 0 mm 3 mps 747 mmHg 61%
    02:00 +26°C° 0 mm 3 mps 747 mmHg 63%
    03:00 +25°C° 0 mm 3 mps 747 mmHg 64%
    04:00 +24°C° 0 mm 2 mps 747 mmHg 65%
    05:00 +25°C° 0 mm 2 mps 747 mmHg 62%
    06:00 +26°C° 0 mm 2 mps 747 mmHg 58%
    07:00 +27°C° 0 mm 2 mps 748 mmHg 54%
    08:00 +30°C° 0 mm 2 mps 748 mmHg 46%
    09:00 +34°C° 0 mm 2 mps 747 mmHg 38%
    10:00 +37°C° 0 mm 2 mps 747 mmHg 30%
    11:00 +39°C° 0 mm 3 mps 747 mmHg 25%
    12:00 +40°C° 0 mm 3 mps 746 mmHg 20%
    13:00 +43°C° 0 mm 3 mps 746 mmHg 15%
    14:00 +43°C° 0 mm 3 mps 745 mmHg 14%
    15:00 +44°C° 0 mm 3 mps 745 mmHg 14%
    16:00 +44°C° 0 mm 3 mps 744 mmHg 13%
    17:00 +42°C° 0 mm 2 mps 744 mmHg 15%
    18:00 +41°C° 0 mm 2 mps 744 mmHg 17%
    19:00 +39°C° 0 mm 1 mps 744 mmHg 19%
    20:00 +37°C° 0 mm 2 mps 745 mmHg 22%
    21:00 +36°C° 0 mm 3 mps 745 mmHg 26%
    22:00 +34°C° 0 mm 4 mps 746 mmHg 29%
    23:00 +32°C° 0 mm 4 mps 745 mmHg 33%

    Day after tomorrow, 23 January, Wednesday

    Time Temperature Precipitation Wind Pressure Humidity
    00:00 +30°C° 0 mm 5 mps 745 mmHg 37%
    01:00 +29°C° 0 mm 5 mps 745 mmHg 40%
    02:00 +28°C° 0 mm 5 mps 745 mmHg 43%
    03:00 +28°C° 0 mm 5 mps 745 mmHg 45%
    04:00 +27°C° 0 mm 5 mps 745 mmHg 47%
    05:00 +27°C° 0 mm 5 mps 746 mmHg 47%
    06:00 +27°C° 0 mm 5 mps 746 mmHg 46%
    07:00 +27°C° 0 mm 5 mps 747 mmHg 46%
    08:00 +30°C° 0 mm 5 mps 747 mmHg 41%
    09:00 +34°C° 0 mm 4 mps 747 mmHg 35%
    10:00 +36°C° 0 mm 4 mps 747 mmHg 29%
    11:00 +38°C° 0 mm 4 mps 746 mmHg 26%
    12:00 +40°C° 0 mm 3 mps 746 mmHg 23%
    13:00 +43°C° 0 mm 3 mps 745 mmHg 20%
    14:00 +42°C° 0 mm 5 mps 745 mmHg 20%
    15:00 +42°C° 0 mm 6 mps 745 mmHg 20%
    16:00 +43°C° 0 mm 8 mps 744 mmHg 20%
    17:00 +39°C° 0 mm 8 mps 745 mmHg 26%
    18:00 +37°C° 0 mm 8 mps 745 mmHg 31%
    19:00 +33°C° 0 mm 8 mps 745 mmHg 37%
    20:00 +30°C° 0 mm 7 mps 746 mmHg 42%
    21:00 +29°C° 0 mm 6 mps 747 mmHg 47%
    22:00 +27°C° 0 mm 6 mps 748 mmHg 52%
    23:00 +26°C° 0 mm 5 mps 748 mmHg 56%

    24 January, Thursday

    Time Temperature Precipitation Wind Pressure Humidity
    00:00 +25°C° 0 mm 5 mps 748 mmHg 60%
    01:00 +23°C° 0 mm 4 mps 748 mmHg 63%
    02:00 +23°C° 0 mm 4 mps 748 mmHg 63%
    03:00 +24°C° 0 mm 3 mps 747 mmHg 63%
    04:00 +24°C° 0 mm 3 mps 747 mmHg 63%
    05:00 +25°C° 0 mm 3 mps 747 mmHg 60%
    06:00 +26°C° 0 mm 3 mps 747 mmHg 57%
    07:00 +27°C° 0 mm 3 mps 748 mmHg 54%
    08:00 +30°C° 0 mm 3 mps 747 mmHg 47%
    09:00 +34°C° 0 mm 3 mps 747 mmHg 40%
    10:00 +36°C° 0 mm 4 mps 747 mmHg 34%
    11:00 +38°C° 0 mm 4 mps 746 mmHg 30%
    12:00 +41°C° 0 mm 4 mps 745 mmHg 26%
    13:00 +43°C° 0 mm 4 mps 745 mmHg 23%
    14:00 +44°C° 0 mm 4 mps 744 mmHg 21%
    15:00 +44°C° 0 mm 4 mps 744 mmHg 19%
    16:00 +45°C° 0 mm 3 mps 743 mmHg 17%
    17:00 +44°C° 0 mm 3 mps 743 mmHg 18%
    18:00 +43°C° 0 mm 3 mps 743 mmHg 20%
    19:00 +42°C° 0 mm 3 mps 743 mmHg 21%
    20:00 +40°C° 0 mm 3 mps 743 mmHg 23%
    21:00 +40°C° 0 mm 4 mps 743 mmHg 25%
    22:00 +37°C° 0 mm 4 mps 744 mmHg 27%
    23:00 +36°C° 0 mm 5 mps 744 mmHg 30%

    25 January, Friday

    Time Temperature Precipitation Wind Pressure Humidity
    00:00 +36°C° 0 mm 6 mps 743 mmHg 34%
    01:00 +35°C° 0 mm 7 mps 743 mmHg 38%
    02:00 +34°C° 0 mm 7 mps 743 mmHg 40%
    03:00 +34°C° 0 mm 7 mps 743 mmHg 42%
    04:00 +33°C° 0 mm 7 mps 743 mmHg 45%
    05:00 +34°C° 0 mm 7 mps 743 mmHg 45%
    06:00 +34°C° 0 mm 8 mps 743 mmHg 44%
    07:00 +34°C° 0 mm 8 mps 744 mmHg 44%
    08:00 +38°C° 0 mm 8 mps 744 mmHg 38%
    09:00 +40°C° 0 mm 8 mps 744 mmHg 32%
    10:00 +44°C° 0 mm 8 mps 743 mmHg 26%
    11:00 +46°C° 0 mm 7 mps 743 mmHg 21%
    12:00 +49°C° 0 mm 7 mps 742 mmHg 17%
    13:00 +51°C° 0 mm 7 mps 741 mmHg 12%
    14:00 +51°C° 0 mm 6 mps 741 mmHg 12%
    15:00 +49°C° 0 mm 5 mps 740 mmHg 11%
    16:00 +48°C° 0 mm 4 mps 740 mmHg 11%
    17:00 +46°C° 0 mm 5 mps 741 mmHg 15%
    18:00 +44°C° 0 mm 7 mps 741 mmHg 18%
    19:00 +42°C° 0 mm 9 mps 742 mmHg 22%
    20:00 +38°C° 0 mm 7 mps 743 mmHg 29%
    21:00 +35°C° 0 mm 5 mps 743 mmHg 35%
    22:00 +31°C° 0 mm 3 mps 744 mmHg 42%
    23:00 +30°C° 0.2 mm 3 mps 744 mmHg 46%

    26 January, Saturday

    Time Temperature Precipitation Wind Pressure Humidity
    00:00 +29°C° 0.2 mm 3 mps 744 mmHg 50%
    01:00 +28°C° 0.2 mm 3 mps 744 mmHg 53%
    02:00 +27°C° 0 mm 4 mps 744 mmHg 57%
    03:00 +25°C° 0 mm 5 mps 744 mmHg 61%
    04:00 +23°C° 0 mm 5 mps 744 mmHg 65%
    05:00 +23°C° 0 mm 5 mps 744 mmHg 65%
    06:00 +23°C° 0 mm 5 mps 745 mmHg 64%
    07:00 +23°C° 0 mm 4 mps 745 mmHg 64%
    08:00 +26°C° 0 mm 4 mps 745 mmHg 54%
    09:00 +29°C° 0 mm 3 mps 745 mmHg 44%
    10:00 +31°C° 0 mm 3 mps 745 mmHg 34%
    11:00 +34°C° 0 mm 3 mps 745 mmHg 29%
    12:00 +36°C° 0 mm 3 mps 744 mmHg 23%
    13:00 +38°C° 0 mm 3 mps 744 mmHg 18%
    14:00 +40°C° 0 mm 4 mps 743 mmHg 16%
    15:00 +41°C° 0 mm 4 mps 743 mmHg 15%
    16:00 +42°C° 0 mm 5 mps 742 mmHg 14%
    17:00 +40°C° 0 mm 5 mps 742 mmHg 15%
    18:00 +38°C° 0 mm 4 mps 743 mmHg 15%
    19:00 +37°C° 0 mm 4 mps 743 mmHg 16%
    20:00 +34°C° 0 mm 4 mps 743 mmHg 19%
    21:00 +32°C° 0 mm 4 mps 743 mmHg 22%
    22:00 +29°C° 0 mm 3 mps 744 mmHg 25%
    23:00 +27°C° 0 mm 3 mps 744 mmHg 34%
    Show more